Погода в Коточигах

Россия / Тюменская область     56°48′54″N   70°56′23″E
темп.,
°C
ветер,
м/с
пор.,
м/с
влажн.,
%
обл.,
%
осадки,
мм/ч
давл.,
гПа
погр.,
м
25 января, пн
пн2523:00−30ююв3794100 0.0 1042206
02:00−28ююв4895100 0.0 1039243
05:00−27юв4898100 0.7 1037252
08:00−26юв4898100 0.6 1035269
11:00−25юв3695100 0.8 1035276
14:00−24вюв3595100 0.0 1034275
17:00−25вюв2497100 0.1 1035124
20:00−26юв3597100 0.0 1035112
26 января, вт
вт2623:00−25ююв3596100 0.0 1035145
02:00−23ююв3796100 0.0 1033218
05:00−20ююв4798100 0.4 1031254
08:00−18ю4996100 0.6 1029273
11:00−14ю4795100 1.2 1027234
14:00−8ююз479599 0.6 1026236
17:00−3зюз499699 0.8 1025389
20:00−2зюз5119598 0.5 1024501
27 января, ср
ср2723:00−2зюз6129499 0.6 1023463
02:00−5зюз71293100 0.1 1023517
05:00−5з61294100 0.1 1023616
08:00−4з61193100 0.1 1023736
11:00−4з61092100 0.2 1024662
14:00−4з5994100 0.2 1025541
17:00−4з4994100 0.4 1025479
20:00−5зюз4895100 0.1 1027391
28 января, чт
чт2823:00−7юз4896100 0.3 1026255
02:00−9юз4996100 0.1 1026210
05:00−10юз5109597 0.1 1025238
08:00−8юз61393100 0.0 1023335
11:00−4юз81590100 0.0 1021590
14:00−3зюз71588100 0.0 1019705
17:00−3зюз71587100 0.0 1018760
20:00−3зюз71594100 0.2 1018808
29 января, пт
пт2923:00−2з61296100 1.8 1018746
02:00−2з51195100 0.2 1020565
05:00−5з489695 0.3 1022205
08:00−8з369739 0.0 102397
11:00−6зсз379668 0.1 1025306
14:00−6ссз359499 0.1 1028391
17:00−15ссв4696100 0.2 1031195
20:00−21всв479698 0.0 1033174